Terremoto di magnitudo ML 3.9 del 07-03-2022 ore 02:41:33 (Italia) in zona: Albania [Land]

Un terremoto di magnitudo ML 3.9 è avvenuto nella zona: Albania [Land], il

  • 07-03-2022 01:41:33 (UTC)
  • 07-03-2022 02:41:33 (UTC +01:00) ora italiana

con coordinate geografiche (lat, lon) 40.7700, 20.5430 ad una profondità di 10 km.

Il terremoto è stato localizzato da: Sala Sismica INGV-Roma.

Ricerca terremoti: Qualsiasi nel raggio di 30 km

I valori delle coordinate ipocentrali e della magnitudo rappresentano la migliore stima con i dati a disposizione. Eventuali nuovi dati o analisi potrebbero far variare tali stime.

Visualizza la localizzazione con

Comuni entro 20 km dall'epicentro

Nessun comune italiano entro 20 km dall'epicentro.

Città più vicine con almeno 50000 abitanti

Nessun comune italiano entro 100 km dall'epicentro con almeno 50000 abitanti.

Sismicità recente e storica
Pericolosità sismica
Mappe di scuotimento
Mappa del risentimento sismico
Cronologia delle localizzazioni calcolate
Tipo Magnitudo Tempo origine (UTC) Latitudine Longitudine Profondità (km) Ora pubblicazione (UTC) Autore ID Localizzazione
Rivista
Rev100
ML 3.9 2022-03-07
01:41:33
40.77 20.543 10 2022-03-07
02:01:27
Sala Sismica INGV-Roma 101745641
Localizzazione e magnitudo preferite finora.
Parametri della localizzazione preferita

Localizzazione

Campo Valore
Tempo (UTC) 2022-03-07 01:41:33 ± 0.1
Latitudine 40.7700 ± 0.0081
Longitudine 20.5430 ± 0.0107
Profondità (km) 10 (operator assigned)
Metodo di valutazione manual
Stato della valutazione reviewed
Versione 100 -> SURVEY-INGV
Tipo di evento earthquake
ID localizzazione 101745641

Incertezze

Campo Valore
Tipo di incertezza uncertainty ellipse
Semi-asse maggiore dell'ellisse di confidenza (metri) 1090
Semi-asse minore dell'ellisse di confidenza (metri) 660
azimuth dell’asse maggiore dell’ellisse di confidenza (gradi) 231
Regione di confidenza sul piano orizzontale espressa mediante singolo valore di incertezza (metri) 1090.0
Livello di confidenza dell'incertezza (%) 68

Qualità

Campo Valore
Maggiore gap azimutale nella distribuzione delle stazioni all'epicentro 133
Numero di fasi associato indipendentemente se utilizzate nella localizzazione (determinazione dell'Origin) 79
Numero di fasi 17
Scarto quadratico medio dei residui di tempo risultanti dal calcolo del tempo origine (Origin) della localizzazione (sec) 0.21
Distanza epicentrale della stazione piu' vicina (gradi) 0.00000
Distanza epicentrale della stazione piu’ lontana (gradi) 2.98305
Numero di stazioni in cui l’evento e’ stato osservato 76
Numero di stazioni usate nel calcolo dell'Origin 15
Parametri della magnitudo

ML:3.9

Campo Valore
Valore 3.9
Incertezza 0.2
Num. stazioni usate 120
Tipo di magnitudo ML
Localizzazione di riferimento 101745641
Agenzia INGV
Autore Sala Sismica INGV-Roma
Tempo di creazione (UTC) 2022-03-07 02:01:27
Tempi di arrivo
SCNL Time Uncertainty Polarity Evaluation_mode Phase Azimuth Distance Takeoff_angle Residual Weight
IV.MSSA.HHZ. 2022-03-07T01:43:49.47 3.0 positive manual Pn 5.51 0
IV.LPEL.HHZ. 2022-03-07T01:43:46.38 3.0 undecidable manual Sn -2.29 0
IV.ZEN8.EHZ. 2022-03-07T01:43:45.45 3.0 undecidable manual Pn 4.59 0
OX.PLRO.HHZ. 2022-03-07T01:43:30.40 3.0 positive manual Pn 0.39 0
OE.ARSA.BHZ. 2022-03-07T01:43:24.32 3.0 negative manual Pn 0.7 0
IV.MMUR.HNZ. 2022-03-07T01:43:22.03 3.0 undecidable manual Pg 14.85 0
SL.LJU.BHZ. 2022-03-07T01:43:15.82 3.0 positive manual Pn -0.05 0
IV.PE3.EHZ. 2022-03-07T01:43:12.33 3.0 undecidable manual Pn -0.84 0
IV.NARO.HHZ. 2022-03-07T01:43:11.48 3.0 positive manual Pn -0.45 0
IV.MPAG.EHZ. 2022-03-07T01:43:09.63 3.0 negative manual Pn -0.76 0
IV.FDMO.HHZ. 2022-03-07T01:43:03.40 3.0 negative manual Pn -0.92 0
IV.MC2.EHZ. 2022-03-07T01:43:02.52 3.0 positive manual Pn -0.27 0
IV.NRCA.HHZ. 2022-03-07T01:43:02.93 3.0 positive manual Pn -0.24 0
IV.RM33.EHZ. 2022-03-07T01:43:01.75 3.0 positive manual Pn 0.82 0
IV.MF5.EHZ. 2022-03-07T01:43:00.60 3.0 negative manual Pn 0.05 0
IV.MMO1.EHZ. 2022-03-07T01:43:00.69 3.0 undecidable manual Pn -0.72 0
IV.MNTT.EHZ. 2022-03-07T01:42:59.72 3.0 positive manual Pn 0.09 0
IV.FAGN.HHZ. 2022-03-07T01:42:57.65 3.0 positive manual Pn 1.2 0
IV.IFIL.HHZ. 2022-03-07T01:42:57.67 3.0 undecidable manual Pn 5.67 0
IV.VVLD.HHZ. 2022-03-07T01:42:55.35 3.0 positive manual Pn 0.38 0
IV.POFI.HHZ. 2022-03-07T01:42:55.11 3.0 positive manual Pn 1.37 0
IV.LRP.EHZ. 2022-03-07T01:42:55.87 3.0 undecidable manual Pn 0.97 0
IV.CERA.HHZ. 2022-03-07T01:42:51.99 3.0 undecidable manual Pn 1.6 0
IV.LPEL.HHZ. 2022-03-07T01:42:50.05 3.0 negative manual Pn 0.26 0
IV.RNI2.HHZ. 2022-03-07T01:42:49.66 3.0 positive manual Pn 0.44 0
IV.VAGA.HHZ. 2022-03-07T01:42:48.67 3.0 positive manual Pn 0.78 0
IV.PTRJ.HHZ. 2022-03-07T01:42:46.16 3.0 negative manual Pn 1.38 0
IV.BSSO.HHZ. 2022-03-07T01:42:45.82 3.0 negative manual Pn 1.42 0
IV.VITU.HHZ. 2022-03-07T01:42:44.50 3.0 negative manual Pn 0.95 0
TV.GMB1.HHZ. 2022-03-07T01:42:43.48 3.0 negative manual Pn 0.02 0
IV.MRB1.HHZ. 2022-03-07T01:42:40.73 3.0 positive manual Pn 0.73 0
IV.MELA.HHZ. 2022-03-07T01:42:39.04 3.0 positive manual Pn -0.29 0
IX.NSC3.EHZ.02 2022-03-07T01:42:39.63 3.0 positive manual Pg 1.3 0
IV.MCRV.HHZ. 2022-03-07T01:42:39.52 3.0 negative manual Pn 1.66 0
IV.CAFE.HHZ. 2022-03-07T01:42:38.20 3.0 negative manual Pg 1.04 0
OT.OT16.EHZ. 2022-03-07T01:42:38.45 3.0 positive manual Pn -0.81 0
IV.CDRU.HHZ. 2022-03-07T01:42:37.54 3.0 positive manual Pg 0.84 0
IV.BULG.HHZ. 2022-03-07T01:42:37.18 3.0 positive manual Pn 0.37 0
IV.CMPR.HHZ. 2022-03-07T01:42:36.67 3.0 undecidable manual P -0.34 0
IX.COL3.HHZ.02 2022-03-07T01:42:36.61 3.0 undecidable manual P 0.38 0
IV.SGTA.HHZ. 2022-03-07T01:42:36.34 3.0 undecidable manual Pg 0.45 0
IV.APRC.HHZ. 2022-03-07T01:42:34.45 3.0 negative manual Pn -0.84 0
OT.OT05.EHZ. 2022-03-07T01:42:33.33 3.0 negative manual Pn -1.07 0
IV.SLCN.HHZ. 2022-03-07T01:42:33.12 3.0 negative manual P -0.32 0
IV.CET2.HHZ. 2022-03-07T01:42:33.37 3.0 positive manual P 0.32 0
IV.MTSN.HHZ. 2022-03-07T01:42:32.14 3.0 negative manual P -0.32 0
IV.GRIS.EHZ. 2022-03-07T01:42:32.88 3.0 undecidable manual P -0.23 0
OT.OT14.EHZ. 2022-03-07T01:42:31.44 3.0 negative manual Pn -0.71 0
IV.MCEL.HHZ. 2022-03-07T01:42:31.93 3.0 negative manual P 0.12 0
IV.MMN.HHZ. 2022-03-07T01:42:31.74 3.0 undecidable manual P 0.62 0
IV.MSAG.HHZ. 2022-03-07T01:42:30.47 3.0 negative manual P -1 0
IV.ACER.HHZ. 2022-03-07T01:42:29.63 3.0 positive manual P -0.15 0
OT.OT13.EHZ. 2022-03-07T01:42:28.86 3.0 negative manual P -0.54 0
OT.OT12.EHZ. 2022-03-07T01:42:28.22 3.0 positive manual P -3.02 0
IV.MRVN.HHZ. 2022-03-07T01:42:26.11 3.0 negative manual P -1.1 0
IV.ORI.HHZ. 2022-03-07T01:42:25.26 3.0 negative manual P -0.6 0
IV.MIGL.HHZ. 2022-03-07T01:42:25.38 3.0 positive manual P 0.68 0
MN.KLV.HHZ. 2022-03-07T01:42:25.29 3.0 negative manual Pn 2.15 0
IV.CRAC.EHZ. 2022-03-07T01:42:24.88 3.0 negative manual P -0.23 0
IV.LADO.EHZ. 2022-03-07T01:42:22.76 3.0 negative manual Pn -1.85 0
CR.STON.BHZ. 2022-03-07T01:42:22.58 0.6 positive manual P 316 2.9831 38 0.79 11
IV.AMUR.HHZ. 2022-03-07T01:42:21.84 3.0 positive manual P -1.04 0
OT.OT15.EHZ. 2022-03-07T01:42:18.94 0.6 undecidable manual P 278 2.7861 38 -0.13 14
HL.VLS.HHZ. 2022-03-07T01:42:17.59 3.0 negative manual Pn 0.02 0
IV.NOCI.HHZ. 2022-03-07T01:42:16.75 0.3 negative manual P 272 2.6323 38 -0.2 22
OT.TAR1.HHZ. 2022-03-07T01:42:14.09 0.6 undecidable manual P 265 2.4830 38 -0.79 15
MN.PDG.HHZ. 2022-03-07T01:42:07.45 1.0 undecidable manual P 330 1.9156 38 0.41 14
IV.SCTE.HHZ. 2022-03-07T01:42:04.52 0.3 negative manual P 247 1.7258 38 0.09 50
MN.THL.HHZ. 2022-03-07T01:42:04.29 0.6 negative manual P 137 1.6476 38 0.95 27
AC.PUK.HHZ. 2022-03-07T01:41:58.64 1.0 undecidable manual P 339 1.3625 50 -0.01 21
MN.KEK.HHZ. 2022-03-07T01:41:56.33 1.0 undecidable manual P 209 1.2006 50 0.44 20
AC.LSK.HHE. 2022-03-07T01:41:54.99 0.6 undecidable manual S 176 0.6214 50 0.09 49
AC.SRN.HHZ. 2022-03-07T01:41:52.63 1.0 undecidable manual P 205 0.9812 50 0.5 21
AC.PHP.HHE. 2022-03-07T01:41:51.07 0.6 undecidable manual P 355 0.9173 50 0.03 46
AC.VLO.HHE. 2022-03-07T01:41:49.59 0.6 undecidable manual P 250 0.8499 50 -0.3 44
MN.TIR.HHZ. 2022-03-07T01:41:48.56 0.6 positive manual P 319 0.7716 50 0.01 48
AC.LSK.HHE. 2022-03-07T01:41:45.78 0.6 undecidable manual P 176 0.6214 50 -0.2 48
AC.KBN.HHZ. 2022-03-07T01:41:43.55 0.6 undecidable manual S 128 0.2356 50 0.07 53
AC.KBN.HHZ. 2022-03-07T01:41:39.06 0.1 positive manual P 128 0.2356 50 -0.33 100
Ampiezza e Magnitudo per ciascuna stazione
SCNL mag Generic_amplitude Period Type Category Unit Time_window_reference
AC.KBN.HHN. ML:4.5 0.169 0.64 AML other m 2022-03-07T01:41:44.47
AC.KBN.HHE. ML:4.0 0.06345 1.3 AML other m 2022-03-07T01:41:44.13
MN.TIR.HHE. ML:3.8 0.008205 0.54 AML other m 2022-03-07T01:42:07.43
MN.TIR.HHN. ML:3.9 0.009059999999999999 1.42 AML other m 2022-03-07T01:42:11.03
AC.SRN.HHE. ML:3.3 0.0019199999999999998 0.76 AML other m 2022-03-07T01:42:11.40
AC.SRN.HHN. ML:3.4 0.002 0.76 AML other m 2022-03-07T01:42:13.30
MN.KEK.HHN. ML:3.7 0.003355 0.8 AML other m 2022-03-07T01:42:17.58
MN.KEK.HHE. ML:3.7 0.0031349999999999998 0.68 AML other m 2022-03-07T01:42:21.51
AC.PUK.HHE. ML:3.7 0.0026500000000000004 1.38 AML other m 2022-03-07T01:42:27.96
AC.PUK.HHN. ML:3.7 0.00252 1.44 AML other m 2022-03-07T01:42:28.21
IV.SCTE.HHE. ML:3.7 0.0016600000000000002 0.72 AML other m 2022-03-07T01:42:32.53
MN.THL.HHE. ML:3.5 0.001081 0.56 AML other m 2022-03-07T01:42:33.72
IV.SCTE.HHN. ML:3.7 0.0018199999999999998 0.62 AML other m 2022-03-07T01:42:37.54
MN.THL.HHN. ML:3.4 0.0009625 0.62 AML other m 2022-03-07T01:42:41.31
MN.PDG.HNE. ML:3.8 0.001735 0.98 AML other m 2022-03-07T01:42:45.67
MN.PDG.HHE. ML:3.8 0.0017150000000000002 0.98 AML other m 2022-03-07T01:42:45.67
MN.PDG.HNN. ML:3.9 0.002245 0.68 AML other m 2022-03-07T01:42:46.79
MN.PDG.HHN. ML:3.9 0.0022299999999999998 0.68 AML other m 2022-03-07T01:42:46.79
HL.VLS.HHE. ML:3.6 0.0005445 0.66 AML other m 2022-03-07T01:42:51.13
OT.OT15.EHE. ML:3.6 0.0005405 1.18 AML other m 2022-03-07T01:42:55.25
OT.TAR1.HHN. ML:4.0 0.001565 1.12 AML other m 2022-03-07T01:42:59.59
IV.NOCI.HHN. ML:4.0 0.0012029999999999999 0.52 AML other m 2022-03-07T01:43:03.09
IV.NOCI.HNN. ML:3.9 0.0011645000000000002 0.52 AML other m 2022-03-07T01:43:03.10
OT.TAR1.HHE. ML:3.8 0.0009015 0.58 AML other m 2022-03-07T01:43:04.71
IV.NOCI.HHE. ML:3.8 0.000889 1 AML other m 2022-03-07T01:43:09.27
IV.NOCI.HNE. ML:3.8 0.0009315 1 AML other m 2022-03-07T01:43:09.28
OT.OT13.EHE. ML:4.0 0.0006205000000000001 0.48 AML other m 2022-03-07T01:43:10.55
HL.VLS.HHN. ML:3.7 0.0007725 0.7 AML other m 2022-03-07T01:43:12.60
OT.OT13.EHN. ML:4.0 0.0006950000000000001 0.28 AML other m 2022-03-07T01:43:13.14
OT.OT15.EHN. ML:3.6 0.0005145 1.12 AML other m 2022-03-07T01:43:14.23
IV.MSAG.HHE. ML:3.5 0.000179 1.02 AML other m 2022-03-07T01:43:14.42
IV.MSAG.HNE. ML:3.9 0.000437 1.02 AML other m 2022-03-07T01:43:14.42
IV.MSAG.HNN. ML:4.2 0.000903 1.58 AML other m 2022-03-07T01:43:15.03
IV.MSAG.HHN. ML:3.8 0.000378 1.58 AML other m 2022-03-07T01:43:15.03
IV.AMUR.HHN. ML:3.7 0.000452 1 AML other m 2022-03-07T01:43:17.56
IV.AMUR.HNN. ML:3.6 0.0004325 1 AML other m 2022-03-07T01:43:17.56
MN.KLV.HHN. ML:3.6 0.0003735 1.02 AML other m 2022-03-07T01:43:17.66
IV.MCEL.HNE. ML:3.9 0.000488 0.7 AML other m 2022-03-07T01:43:17.62
IV.APRC.HHE. ML:4.0 0.000418 0.3 AML other m 2022-03-07T01:43:22.28
IV.MIGL.HHN. ML:4.5 0.00293 0.94 AML other m 2022-03-07T01:43:22.47
IV.MTSN.HHE. ML:3.8 0.0003695 0.9 AML other m 2022-03-07T01:43:23.19
IV.MTSN.HNE. ML:3.8 0.000388 0.9 AML other m 2022-03-07T01:43:23.19
CR.STON.BHE. ML:3.5 0.000279 0.6 AML other m 2022-03-07T01:43:23.08
CR.STON.BHN. ML:3.6 0.000416 0.48 AML other m 2022-03-07T01:43:23.40
IV.MIGL.HHE. ML:4.5 0.00285 0.88 AML other m 2022-03-07T01:43:24.39
IV.AMUR.HHE. ML:3.9 0.0007235000000000001 0.8 AML other m 2022-03-07T01:43:25.47
IV.AMUR.HNE. ML:3.9 0.000705 0.8 AML other m 2022-03-07T01:43:25.47
IV.MRVN.HHE. ML:3.6 0.0003105 0.86 AML other m 2022-03-07T01:43:25.55
IV.APRC.HHN. ML:4.2 0.0006734999999999999 0.34 AML other m 2022-03-07T01:43:26.59
IV.SLCN.HHE. ML:4.0 0.000532 0.4 AML other m 2022-03-07T01:43:26.73
IV.SLCN.HNN. ML:4.0 0.0004575 0.42 AML other m 2022-03-07T01:43:26.77
IV.SLCN.HHN. ML:3.9 0.00040800000000000005 0.4 AML other m 2022-03-07T01:43:26.78
IV.MTSN.HHN. ML:3.8 0.000321 0.46 AML other m 2022-03-07T01:43:27.69
IV.MTSN.HNN. ML:3.8 0.000321 0.48 AML other m 2022-03-07T01:43:27.70
IV.CRAC.EHE. ML:4.1 0.0011 0.44 AML other m 2022-03-07T01:43:28.29
MN.KLV.HHE. ML:3.7 0.0004525 1.16 AML other m 2022-03-07T01:43:28.08
IV.MCRV.HHE. ML:3.8 0.00026900000000000003 0.48 AML other m 2022-03-07T01:43:28.35
IV.ORI.HHN. ML:4.1 0.000948 1.6 AML other m 2022-03-07T01:43:29.91
IX.NSC3.EHE.02 ML:3.7 0.000199 0.4 AML other m 2022-03-07T01:43:29.18
IV.BULG.HHE. ML:3.9 0.00036150000000000006 0.48 AML other m 2022-03-07T01:43:29.18
IV.CRAC.EHN. ML:4.4 0.0020350000000000004 0.8 AML other m 2022-03-07T01:43:29.90
IX.COL3.HHE.02 ML:4.0 0.0004435 0.32 AML other m 2022-03-07T01:43:29.75
IV.CDRU.HHE. ML:3.5 0.00013550000000000001 0.4 AML other m 2022-03-07T01:43:31.24
IV.LADO.EHN. ML:3.7 0.00042100000000000004 0.64 AML other m 2022-03-07T01:43:32.03
IV.MRVN.HHN. ML:3.7 0.00034399999999999996 0.6 AML other m 2022-03-07T01:43:32.13
IV.ORI.HHE. ML:4.0 0.0009135 1.42 AML other m 2022-03-07T01:43:32.86
IV.MRB1.HHE. ML:4.0 0.000354 0.46 AML other m 2022-03-07T01:43:33.54
IV.MRB1.HNE. ML:4.0 0.0003595 0.48 AML other m 2022-03-07T01:43:33.54
IV.LADO.EHE. ML:3.9 0.0007844999999999999 1.38 AML other m 2022-03-07T01:43:33.98
IV.MELA.HNE. ML:4.2 0.0006504999999999999 1.2 AML other m 2022-03-07T01:43:35.98
IV.MELA.HHE. ML:4.2 0.0006275 1.44 AML other m 2022-03-07T01:43:35.98
TV.GMB1.HHE. ML:3.4 0.00007675 1.02 AML other m 2022-03-07T01:43:36.68
TV.GMB1.HNE. ML:3.9 0.00026250000000000004 1.06 AML other m 2022-03-07T01:43:36.69
IV.VITU.HHN. ML:4.2 0.000474 1.48 AML other m 2022-03-07T01:43:38.85
IV.MELA.HNN. ML:4.2 0.0006165000000000001 0.44 AML other m 2022-03-07T01:43:39.31
IV.ACER.HHN. ML:4.3 0.0012684999999999999 1.1 AML other m 2022-03-07T01:43:40.39
IV.ACER.HNN. ML:4.3 0.0012584999999999999 1.1 AML other m 2022-03-07T01:43:40.39
IV.PTRJ.HHN. ML:4.2 0.0004435 1.08 AML other m 2022-03-07T01:43:41.09
IV.PTRJ.HHE. ML:3.7 0.00014900000000000002 1.06 AML other m 2022-03-07T01:43:41.39
IV.BSSO.HNE. ML:4.0 0.000272 0.4 AML other m 2022-03-07T01:43:42.78
IV.BSSO.HHE. ML:4.0 0.000287 0.4 AML other m 2022-03-07T01:43:42.78
IV.ACER.HHE. ML:4.3 0.0012250000000000002 0.8 AML other m 2022-03-07T01:43:44.59
IV.ACER.HNE. ML:4.3 0.0012195 0.78 AML other m 2022-03-07T01:43:44.59
TV.GMB1.HHN. ML:3.4 0.0000693 1.22 AML other m 2022-03-07T01:43:44.67
TV.GMB1.HNN. ML:3.8 0.0002095 1.24 AML other m 2022-03-07T01:43:44.68
IV.MMN.HHN. ML:3.7 0.00027249999999999996 0.72 AML other m 2022-03-07T01:43:45.69
IV.CDRU.HHN. ML:3.5 0.0001225 0.86 AML other m 2022-03-07T01:43:45.37
IV.SLCN.HNE. ML:4.0 0.00046550000000000004 0.54 AML other m 2022-03-07T01:43:46.39
IV.CET2.HHE. ML:4.0 0.000587 0.82 AML other m 2022-03-07T01:43:46.62
IV.VITU.HHE. ML:4.1 0.000379 0.62 AML other m 2022-03-07T01:43:46.33
IV.BSSO.HHN. ML:4.1 0.00035250000000000006 0.52 AML other m 2022-03-07T01:43:46.80
IV.BSSO.HNN. ML:4.1 0.0003445 0.5 AML other m 2022-03-07T01:43:46.55
IV.MELA.HHN. ML:4.2 0.0005745 1.26 AML other m 2022-03-07T01:43:46.24
IV.MCEL.HHN. ML:3.7 0.000314 1.42 AML other m 2022-03-07T01:43:47.71
IV.VAGA.HHE. ML:4.2 0.000383 0.48 AML other m 2022-03-07T01:43:47.72
IV.VAGA.HNE. ML:4.2 0.000372 0.48 AML other m 2022-03-07T01:43:47.72
IV.MCEL.HNN. ML:4.0 0.0005909999999999999 0.86 AML other m 2022-03-07T01:43:47.93
IV.MMN.HHE. ML:3.6 0.00021799999999999999 1.16 AML other m 2022-03-07T01:43:49.60
IV.MCEL.HHE. ML:3.8 0.000341 1.08 AML other m 2022-03-07T01:43:50.60
IV.CET2.HHN. ML:4.1 0.0006035000000000001 1.3 AML other m 2022-03-07T01:43:50.93
IV.LPEL.HNN. ML:4.1 0.000286 1.32 AML other m 2022-03-07T01:43:51.69
IV.LPEL.HHN. ML:4.0 0.00022 0.68 AML other m 2022-03-07T01:43:51.36
IV.VAGA.HHN. ML:4.3 0.0005024999999999999 0.68 AML other m 2022-03-07T01:43:52.59
IV.VAGA.HNN. ML:4.3 0.000503 0.68 AML other m 2022-03-07T01:43:52.93
IV.LPEL.HNE. ML:4.2 0.000312 0.4 AML other m 2022-03-07T01:43:53.62
IV.SGTA.HHE. ML:4.0 0.0004305 0.62 AML other m 2022-03-07T01:43:54.21
IV.SGTA.HNE. ML:4.0 0.0004235 0.72 AML other m 2022-03-07T01:43:54.19
IV.SGTA.HNN. ML:4.0 0.00041600000000000003 1.08 AML other m 2022-03-07T01:43:55.56
IV.SGTA.HHN. ML:3.9 0.0003545 0.98 AML other m 2022-03-07T01:43:55.55
IV.LPEL.HHE. ML:4.1 0.0002935 1.44 AML other m 2022-03-07T01:43:55.87
IV.MRB1.HNN. ML:4.2 0.0006365 0.94 AML other m 2022-03-07T01:43:55.94
IV.MRB1.HHN. ML:4.2 0.000642 0.94 AML other m 2022-03-07T01:43:55.94
IV.CAFE.HHN. ML:3.9 0.000315 1 AML other m 2022-03-07T01:43:57.51
IV.CAFE.HNN. ML:3.9 0.00035450000000000005 1 AML other m 2022-03-07T01:43:57.51
IX.COL3.HHN.02 ML:3.9 0.000371 1.02 AML other m 2022-03-07T01:43:57.04
IX.NSC3.EHN.02 ML:3.7 0.0002085 0.98 AML other m 2022-03-07T01:43:59.67
IV.MCRV.HHN. ML:3.8 0.000284 0.66 AML other m 2022-03-07T01:43:59.54
IV.CAFE.HHE. ML:4.0 0.00046350000000000004 0.64 AML other m 2022-03-07T01:44:00.36
IV.CAFE.HNE. ML:4.0 0.0004435 0.64 AML other m 2022-03-07T01:44:00.37
IV.BULG.HHN. ML:3.9 0.00037 0.92 AML other m 2022-03-07T01:44:01.47
TDMT - Time Domain Moment Tensor
Meccanismi di sorgente sismica nell'area
Download
Tipo Descrizione Link
QuakeML - small Event, Origin, FocalMechanism Download
QuakeML - full Event, Origin, FocalMechanism, Amplitude, Arrival, Pick, Station Magnitude Download
Forme d'onda Segnali sismici in formato miniseed + resp Download